Yunyao-1 39

operational
NORAD ID: 62731 Int'l Des: NNA 2025-013 Owner: YYAO Country: CN
LEOCIRCULARRETROGRADESSO

About Yunyao-1 39

Description loading...

Live Position

Loading 3D Globe...

Upcoming Passes

Altitude History

Altitude vs Time

uPlot chart will show altitude changes over time

Two-Line Element Set

1 62731U 25013C 25315.29719840 .00006553 00000-0 41521-3 0 9991
2 62731 97.6323 119.8513 0015519 43.1685 317.0758 15.09186561 44446
Epoch: Nov 11, 2025 • Age: 25 hours

Current Status

Altitude 548.2 km
Velocity 7.59 km/s
Sub-Earth Point -33.42°S, 52.45°W
Launch Date Jan 20, 2025
Age 0.8 years
Type other

Technical Details

Classification Payload
Mass 50.00 kg
Dry Mass 50.00 kg
Total Mass 50.00 kg
Length 2.00 m
Diameter 1.50 m
Span 5.00 m
Shape Box + pan
Manufacturer CGSTL
Bus Type YY-1
Phase Status In Orbit
Owner/State YYAO/CN

Large Constellations

Loading constellations...